Massena, NY

2:45 PM EDT on October 20, 2017 (GMT -0400)
Massena International-Richards

Weather History for KMSS - September, 2013

Change the Weather History Date:

Saturday, September 21, 2013

  Actual Average Record
Temperature  
Mean Temperature 66 °F 56 °F  
Max Temperature 72 °F 67 °F 85 °F (1965)
Min Temperature 59 °F 45 °F 30 °F (1962)
Degree Days  
Heating Degree Days 0 9  
Month to date heating degree days 142 124  
Since 1 July heating degree days 198 199  
Cooling Degree Days 1 0  
Month to date cooling degree days 31 24  
Year to date cooling degree days 418 360  
Growing Degree Days 15 (Base 50)    
Moisture  
Dew Point 60 °F    
Average Humidity 82    
Maximum Humidity 97    
Minimum Humidity 66    
Precipitation  
Precipitation 1.35 in 0.13 in 1.51 in (1983)
Month to date precipitation 5.08 2.50  
Year to date precipitation 28.20 25.04  
Sea Level Pressure  
Sea Level Pressure 29.63 in    
Wind  
Wind Speed 8 mph (SW)    
Max Wind Speed 16 mph    
Max Gust Speed 24 mph    
Visibility 5 miles    
Events Rain    
T = Trace of Precipitation, MM = Missing Value Source: NWS Daily Summary

Daily Weather History Graph

Daily Weather History Graph

Search for Another Location

Airport or City:

Trip Planner

Search our weather history database for the weather conditions in past years. The results will help you decide how hot, cold, wet, or windy it might be!

Date:

Astronomy

Sep. 21, 2013 Rise Set
Actual Time 6:45 AM EDT 6:58 PM EDT
Civil Twilight 6:16 AM EDT 7:27 PM EDT
Nautical Twilight 5:41 AM EDT 8:01 PM EDT
Astronomical Twilight 5:06 AM EDT 8:37 PM EDT
Moon 7:58 PM EDT (9/21) 9:09 AM EDT (9/21)
Length of Visible Light 13h 11m
Length of Day
12h 12m
Waning Gibbous, 94% of the Moon is Illuminated
Sep 21
Waning Gibbous
Sep 26
Last Quarter
Oct 4
New
Oct 11
First Quarter
Oct 18
Full

Hourly Weather History & Observations

Time (EDT) Temp. Dew Point Humidity Pressure Visibility Wind Dir Wind Speed Gust Speed Precip Events Conditions
12:53 AM 66.9 °F 55.0 °F 66% 29.79 in 10.0 mi South 11.5 mph - N/A   Clear
1:53 AM 66.9 °F 55.0 °F 66% 29.78 in 10.0 mi South 9.2 mph - N/A   Clear
2:53 AM 66.9 °F 55.0 °F 66% 29.76 in 10.0 mi South 8.1 mph - N/A   Partly Cloudy
3:53 AM 66.0 °F 55.0 °F 68% 29.75 in 10.0 mi South 8.1 mph - N/A   Clear
4:53 AM 66.0 °F 55.0 °F 68% 29.73 in 10.0 mi South 10.4 mph - N/A   Clear
5:53 AM 66.0 °F 55.9 °F 70% 29.72 in 10.0 mi SSW 10.4 mph - N/A   Mostly Cloudy
6:53 AM 66.0 °F 55.9 °F 70% 29.70 in 10.0 mi South 10.4 mph - N/A   Partly Cloudy
7:53 AM 68.0 °F 57.0 °F 68% 29.69 in 10.0 mi South 10.4 mph - N/A   Overcast
8:53 AM 70.0 °F 57.9 °F 65% 29.66 in 10.0 mi South 12.7 mph 20.7 mph N/A   Clear
9:53 AM 71.1 °F 59.0 °F 66% 29.66 in 10.0 mi SSW 13.8 mph 19.6 mph N/A   Mostly Cloudy
10:53 AM 70.0 °F 60.1 °F 71% 29.66 in 10.0 mi WSW 5.8 mph - 0.00 in   Overcast
11:53 AM 69.1 °F 60.1 °F 73% 29.65 in 10.0 mi WSW 8.1 mph - 0.00 in Rain Light Rain
12:53 PM 66.0 °F 61.0 °F 84% 29.63 in 10.0 mi WSW 4.6 mph - 0.00 in   Overcast
1:10 PM 64.4 °F 62.6 °F 94% 29.63 in 1.8 mi Calm Calm - 0.04 in Rain Heavy Rain
1:19 PM 64.4 °F 62.6 °F 94% 29.62 in 1.2 mi Calm Calm - 0.09 in Rain Heavy Rain
1:23 PM 64.4 °F 62.6 °F 94% 29.62 in 2.0 mi Variable 3.5 mph - 0.09 in Rain Light Rain
1:31 PM 64.4 °F 62.6 °F 94% 29.61 in 8.0 mi Calm Calm - 0.09 in Rain Light Rain
1:53 PM 64.9 °F 63.0 °F 93% 29.61 in 8.0 mi Calm Calm - 0.09 in Rain Light Rain
2:06 PM 64.4 °F 62.6 °F 94% 29.61 in 1.8 mi WNW 3.5 mph - 0.06 in Rain Heavy Rain
2:39 PM 64.4 °F 62.6 °F 94% 29.61 in 1.2 mi WSW 8.1 mph - 0.21 in Rain Heavy Rain
2:47 PM 64.4 °F 62.6 °F 94% 29.61 in 2.0 mi WSW 9.2 mph - 0.24 in Rain Light Rain
2:53 PM 64.9 °F 62.1 °F 90% 29.61 in 2.5 mi SW 11.5 mph 24.2 mph 0.27 in Rain Rain
3:14 PM 64.4 °F 62.6 °F 94% 29.60 in 4.0 mi SW 10.4 mph - 0.06 in Rain Light Rain
3:41 PM 64.4 °F 62.6 °F 94% 29.60 in 2.0 mi SW 8.1 mph - 0.11 in Rain Rain
3:53 PM 64.0 °F 62.1 °F 93% 29.60 in 3.0 mi SW 8.1 mph - 0.13 in Rain Rain
4:00 PM 64.4 °F 62.6 °F 94% 29.59 in 2.0 mi WSW 8.1 mph - 0.02 in Rain Rain
4:14 PM 64.4 °F 62.6 °F 94% 29.59 in 4.0 mi WSW 5.8 mph - 0.03 in Rain Light Rain
4:48 PM 64.4 °F 62.6 °F 94% 29.59 in 1.8 mi WSW 8.1 mph - 0.09 in Rain Heavy Rain
4:53 PM 64.0 °F 62.1 °F 93% 29.59 in 1.2 mi SW 11.5 mph - 0.13 in Rain Heavy Rain
5:01 PM 62.6 °F 62.6 °F 100% 29.59 in 1.5 mi WSW 9.2 mph 17.3 mph 0.03 in Rain Heavy Rain
5:10 PM 64.4 °F 60.8 °F 88% 29.59 in 2.0 mi SW 9.2 mph - 0.06 in Rain Rain
5:25 PM 62.6 °F 60.8 °F 94% 29.60 in 2.5 mi West 13.8 mph - 0.12 in Rain Rain
5:30 PM 62.6 °F 60.8 °F 94% 29.60 in 3.0 mi WNW 10.4 mph - 0.13 in Rain Rain
5:38 PM 60.8 °F 59.0 °F 94% 29.60 in 3.0 mi WNW 8.1 mph - 0.14 in Rain Rain
5:50 PM 60.8 °F 59.0 °F 94% 29.61 in 4.0 mi West 5.8 mph - 0.16 in Rain Rain
5:53 PM 61.0 °F 59.0 °F 93% 29.61 in 4.0 mi West 5.8 mph - 0.17 in Rain Rain
6:14 PM 60.8 °F 59.0 °F 94% 29.61 in 2.5 mi West 4.6 mph - 0.04 in Rain Rain
6:43 PM 60.8 °F 59.0 °F 94% 29.61 in 3.0 mi West 3.5 mph - 0.13 in Rain Rain
6:53 PM 61.0 °F 59.0 °F 93% 29.61 in 3.0 mi WSW 3.5 mph - 0.16 in Rain Rain
7:04 PM 60.8 °F 59.0 °F 94% 29.60 in 4.0 mi NW 4.6 mph - 0.03 in Rain Rain
7:43 PM 60.8 °F 59.0 °F 94% 29.60 in 4.0 mi West 6.9 mph - 0.11 in Rain Heavy Rain
7:50 PM 60.8 °F 59.0 °F 94% 29.60 in 4.0 mi West 6.9 mph - 0.12 in Rain Rain
7:53 PM 60.1 °F 59.0 °F 96% 29.60 in 4.0 mi West 5.8 mph - 0.13 in Rain Rain
8:53 PM 60.1 °F 57.9 °F 93% 29.60 in 6.0 mi SW 4.6 mph - 0.08 in Rain Light Rain
9:31 PM 60.8 °F 57.2 °F 88% 29.61 in 6.0 mi SW 5.8 mph - 0.03 in Rain Light Rain
9:53 PM 60.1 °F 57.9 °F 93% 29.60 in 6.0 mi SW 4.6 mph - 0.05 in Rain Light Rain
10:07 PM 59.0 °F 57.2 °F 94% 29.60 in 6.0 mi SSW 5.8 mph - 0.02 in Rain Light Rain
10:18 PM 59.0 °F 57.2 °F 94% 29.60 in 7.0 mi SSW 5.8 mph - 0.03 in Rain Light Rain
10:53 PM 59.0 °F 57.9 °F 96% 29.60 in 8.0 mi SSW 5.8 mph - 0.06 in Rain Light Rain
11:53 PM 59.0 °F 57.9 °F 96% 29.59 in 6.0 mi SSW 6.9 mph - 0.05 in Rain Light Rain